| time (UTC) | temp F | wind direction | speed MPH | gust MPH | rain 1hr in | rain 24hr in | rain mn in | humidity % | barometer mb |
| 20260506091540 | 56 | 61 | 0.0 | 2.0 | 0.09 | 0.10 | 0.10 | 92 | 1011.1 |
| 20260506091057 | 56 | 25 | 0.0 | 2.0 | 0.09 | 0.09 | 0.09 | 92 | 1011.0 |
| 20260506090523 | 56 | 222 | 0.0 | 2.0 | 0.07 | 0.07 | 0.07 | 92 | 1010.9 |
| 20260506090046 | 56 | 232 | 0.0 | 1.0 | 0.06 | 0.06 | 0.06 | 91 | 1010.9 |
| 20260506085526 | 56 | 257 | 0.0 | 1.0 | 0.05 | 0.05 | 0.05 | 91 | 1010.9 |
| 20260506085024 | 57 | 215 | 0.0 | 1.0 | 0.04 | 0.04 | 0.04 | 90 | 1010.7 |
| 20260506084546 | 57 | 98 | 0.0 | 1.0 | 0.04 | 0.04 | 0.04 | 89 | 1010.6 |
| 20260506084024 | 57 | 0 | 0.0 | 1.0 | 0.04 | 0.04 | 0.04 | 88 | 1010.7 |
| 20260506083524 | 58 | 0 | 0.0 | 0.0 | 0.03 | 0.03 | 0.03 | 88 | 1010.8 |
| 20260506083043 | 58 | 0 | 0.0 | 0.0 | 0.02 | 0.02 | 0.02 | 86 | 1010.9 |
| 20260506082526 | 58 | 0 | 0.0 | 1.0 | 0.02 | 0.02 | 0.02 | 84 | 1010.7 |
| 20260506082026 | 59 | 0 | 0.0 | 2.0 | 0.01 | 0.01 | 0.01 | 81 | 1010.5 |
| 20260506081548 | 60 | 52 | 0.0 | 2.0 | 0.01 | 0.01 | 0.01 | 79 | 1010.3 |
| 20260506081027 | 60 | 35 | 1.0 | 1.0 | 0.00 | 0.00 | 0.00 | 75 | 1010.2 |
| 20260506080526 | 60 | 0 | 0.0 | 1.0 | 0.00 | 0.00 | 0.00 | 76 | 1010.3 |
| 20260506073524 | 61 | 115 | 0.0 | 1.0 | 0.00 | 0.00 | 0.00 | 72 | 1010.0 |
| 20260506073047 | 61 | 0 | 0.0 | 1.0 | 0.00 | 0.00 | 0.00 | 72 | 1010.0 |
| 20260506072525 | 61 | 0 | 0.0 | 1.0 | 0.00 | 0.00 | 0.00 | 70 | 1010.0 |
| 20260506072027 | 61 | 0 | 0.0 | 1.0 | 0.00 | 0.00 | 0.00 | 72 | 1009.9 |
| 20260506071555 | 61 | 115 | 0.0 | 1.0 | 0.00 | 0.00 | 0.00 | 73 | 1010.1 |
| 20260506071024 | 61 | 117 | 1.0 | 1.0 | 0.00 | 0.00 | 0.00 | 73 | 1010.2 |
| 20260506070523 | 61 | 0 | 0.0 | 0.0 | 0.00 | 0.00 | 0.00 | 72 | 1010.3 |
| 20260506062026 | 61 | 0 | 0.0 | 2.0 | 0.00 | 0.00 | 0.00 | 71 | 1010.4 |
| 20260506061539 | 62 | 129 | 2.0 | 2.0 | 0.00 | 0.00 | 0.00 | 70 | 1010.4 |
| 20260506061026 | 62 | 122 | 1.0 | 2.0 | 0.00 | 0.00 | 0.00 | 70 | 1010.5 |
| 20260506060527 | 62 | 114 | 1.0 | 2.0 | 0.00 | 0.00 | 0.00 | 70 | 1010.8 |
| 20260506051024 | 63 | 0 | 0.0 | 0.0 | 0.00 | 0.00 | 0.00 | 65 | 1011.9 |
| 20260506050523 | 63 | 0 | 0.0 | 0.0 | 0.00 | 0.00 | 0.00 | 65 | 1011.9 |
| 20260506045027 | 63 | 0 | 0.0 | 0.0 | 0.00 | 0.00 | 0.00 | 65 | 1011.9 |
| 20260506044544 | 64 | 0 | 0.0 | 0.0 | 0.00 | 0.00 | 0.00 | 63 | 1011.9 |
| 20260506044025 | 64 | 0 | 0.0 | 1.0 | 0.00 | 0.00 | 0.00 | 63 | 1011.7 |
| 20260506043523 | 64 | 0 | 0.0 | 1.0 | 0.00 | 0.00 | 0.00 | 62 | 1011.5 |
| 20260506043047 | 64 | 0 | 0.0 | 1.0 | 0.00 | 0.00 | 0.00 | 62 | 1011.5 |
| 20260506042528 | 64 | 0 | 0.0 | 1.0 | 0.00 | 0.00 | 0.00 | 61 | 1011.7 |
| 20260506042024 | 64 | 0 | 0.0 | 1.0 | 0.00 | 0.00 | 0.00 | 61 | 1011.4 |
| 20260506041542 | 64 | 0 | 0.0 | 1.0 | 0.00 | 0.00 | 0.00 | 61 | 1011.7 |
| 20260506041025 | 65 | 0 | 0.0 | 1.0 | 0.00 | 0.00 | 0.00 | 60 | 1011.7 |
| 20260506040525 | 65 | 0 | 0.0 | 1.0 | 0.00 | 0.00 | 0.00 | 61 | 1011.7 |
| 20260506040048 | 65 | 0 | 0.0 | 1.0 | 0.00 | 0.00 | 0.00 | 60 | 1011.8 |
| 20260506035528 | 65 | 0 | 0.0 | 0.0 | 0.00 | 0.00 | 0.00 | 59 | 1011.5 |
| 20260506035025 | 65 | 98 | 0.0 | 0.0 | 0.00 | 0.00 | 0.00 | 59 | 1011.4 |
| 20260506034540 | 65 | 0 | 0.0 | 2.0 | 0.00 | 0.00 | 0.00 | 59 | 1011.3 |
| 20260506034025 | 66 | 0 | 0.0 | 2.0 | 0.00 | 0.00 | 0.00 | 58 | 1011.3 |
| 20260506033525 | 66 | 98 | 1.0 | 2.0 | 0.00 | 0.00 | 0.00 | 58 | 1011.4 |
| 20260506033039 | 66 | 107 | 0.0 | 1.0 | 0.00 | 0.00 | 0.00 | 59 | 1011.6 |
| 20260506032525 | 66 | 0 | 0.0 | 1.0 | 0.00 | 0.00 | 0.00 | 57 | 1011.5 |
| 20260506032028 | 66 | 104 | 0.0 | 2.0 | 0.00 | 0.00 | 0.00 | 57 | 1011.6 |
| 20260506031546 | 66 | 0 | 0.0 | 2.0 | 0.00 | 0.00 | 0.00 | 57 | 1011.6 |
| 20260506031025 | 67 | 107 | 1.0 | 1.0 | 0.00 | 0.00 | 0.00 | 56 | 1011.4 |
| 20260506030527 | 66 | 53 | 0.0 | 1.0 | 0.00 | 0.00 | 0.00 | 55 | 1011.7 |
| 20260506030059 | 67 | 243 | 0.0 | 1.0 | 0.00 | 0.00 | 0.00 | 56 | 1011.9 |
| 20260506025524 | 66 | 0 | 0.0 | 1.0 | 0.00 | 0.00 | 0.00 | 56 | 1011.8 |
| 20260506025027 | 67 | 0 | 0.0 | 1.0 | 0.00 | 0.00 | 0.00 | 55 | 1011.7 |
| 20260506024555 | 67 | 67 | 0.0 | 1.0 | 0.00 | 0.00 | 0.00 | 55 | 1011.7 |
| 20260506024025 | 67 | 0 | 0.0 | 1.0 | 0.00 | 0.00 | 0.00 | 55 | 1011.6 |
| 20260506023525 | 67 | 68 | 0.0 | 1.0 | 0.00 | 0.00 | 0.00 | 55 | 1011.6 |
| 20260506023044 | 67 | 253 | 0.0 | 1.0 | 0.00 | 0.00 | 0.00 | 55 | 1011.8 |
| 20260506022524 | 67 | 0 | 0.0 | 1.0 | 0.00 | 0.00 | 0.00 | 55 | 1011.9 |
| 20260506022024 | 67 | 0 | 0.0 | 3.0 | 0.00 | 0.00 | 0.00 | 56 | 1011.9 |
| 20260506021539 | 67 | 0 | 0.0 | 5.0 | 0.00 | 0.00 | 0.00 | 56 | 1012.0 |
| 20260506021024 | 67 | 217 | 0.0 | 5.0 | 0.00 | 0.00 | 0.00 | 55 | 1012.2 |
| 20260506020529 | 67 | 302 | 2.0 | 5.0 | 0.00 | 0.00 | 0.00 | 54 | 1012.2 |
| 20260506020045 | 66 | 241 | 1.0 | 3.0 | 0.00 | 0.00 | 0.00 | 57 | 1012.3 |
| 20260506015524 | 66 | 0 | 0.0 | 0.0 | 0.00 | 0.00 | 0.00 | 57 | 1012.3 |
| 20260506015024 | 66 | 0 | 0.0 | 0.0 | 0.00 | 0.00 | 0.00 | 56 | 1012.2 |
| 20260506014555 | 67 | 0 | 0.0 | 1.0 | 0.00 | 0.00 | 0.00 | 56 | 1012.2 |
| 20260506014024 | 67 | 0 | 0.0 | 1.0 | 0.00 | 0.00 | 0.00 | 56 | 1012.1 |
| 20260506013523 | 67 | 0 | 0.0 | 1.0 | 0.00 | 0.00 | 0.00 | 56 | 1012.0 |
| 20260506013044 | 67 | 0 | 0.0 | 1.0 | 0.00 | 0.00 | 0.00 | 55 | 1012.0 |
| 20260506012526 | 67 | 0 | 0.0 | 0.0 | 0.00 | 0.00 | 0.00 | 55 | 1011.7 |
| 20260506012027 | 67 | 0 | 0.0 | 1.0 | 0.00 | 0.00 | 0.00 | 55 | 1011.6 |
| 20260506011542 | 67 | 0 | 0.0 | 1.0 | 0.00 | 0.00 | 0.00 | 54 | 1011.7 |
| 20260506011023 | 67 | 0 | 0.0 | 1.0 | 0.00 | 0.00 | 0.00 | 54 | 1011.7 |
| 20260506010523 | 67 | 68 | 0.0 | 1.0 | 0.00 | 0.00 | 0.00 | 54 | 1011.8 |
| 20260506010050 | 68 | 68 | 0.0 | 1.0 | 0.00 | 0.00 | 0.00 | 54 | 1011.7 |
| 20260506005525 | 68 | 0 | 0.0 | 1.0 | 0.00 | 0.00 | 0.00 | 54 | 1011.8 |
| 20260506005023 | 68 | 0 | 0.0 | 1.0 | 0.00 | 0.00 | 0.00 | 54 | 1011.7 |
| 20260506004548 | 68 | 42 | 0.0 | 1.0 | 0.00 | 0.00 | 0.00 | 53 | 1011.7 |
| 20260506004024 | 68 | 42 | 0.0 | 0.0 | 0.00 | 0.00 | 0.00 | 53 | 1012.0 |
| 20260506003526 | 68 | 0 | 0.0 | 1.0 | 0.00 | 0.00 | 0.00 | 53 | 1011.9 |
| 20260506003042 | 68 | 0 | 0.0 | 1.0 | 0.00 | 0.00 | 0.00 | 53 | 1011.8 |
| 20260506002526 | 69 | 0 | 0.0 | 1.0 | 0.00 | 0.00 | 0.00 | 52 | 1011.8 |
| 20260506002026 | 69 | 0 | 0.0 | 2.0 | 0.00 | 0.00 | 0.00 | 52 | 1011.7 |
| 20260506001551 | 69 | 37 | 0.0 | 2.0 | 0.00 | 0.00 | 0.00 | 52 | 1011.8 |
| 20260506001026 | 69 | 0 | 0.0 | 1.0 | 0.00 | 0.00 | 0.00 | 51 | 1011.8 |
| 20260506000524 | 69 | 0 | 0.0 | 2.0 | 0.00 | 0.00 | 0.00 | 51 | 1011.9 |
| 20260506000042 | 70 | 0 | 0.0 | 3.0 | 0.00 | 0.00 | 0.00 | 51 | 1011.8 |
| 20260505235525 | 70 | 0 | 0.0 | 3.0 | 0.00 | 0.00 | 0.00 | 49 | 1011.7 |
| 20260505235025 | 69 | 50 | 0.0 | 3.0 | 0.00 | 0.00 | 0.00 | 50 | 1011.8 |
| 20260505234545 | 70 | 64 | 0.0 | 1.0 | 0.00 | 0.00 | 0.00 | 51 | 1011.9 |
| 20260505234026 | 70 | 0 | 0.0 | 2.0 | 0.00 | 0.00 | 0.00 | 52 | 1011.9 |
| 20260505233524 | 70 | 0 | 0.0 | 3.0 | 0.00 | 0.00 | 0.00 | 52 | 1011.9 |
| 20260505233039 | 70 | 0 | 0.0 | 3.0 | 0.00 | 0.00 | 0.00 | 51 | 1011.8 |
| 20260505232523 | 71 | 23 | 0.0 | 3.0 | 0.00 | 0.00 | 0.00 | 50 | 1011.7 |
| 20260505232026 | 71 | 0 | 0.0 | 3.0 | 0.00 | 0.00 | 0.00 | 50 | 1011.6 |
| 20260505231541 | 71 | 222 | 0.0 | 3.0 | 0.00 | 0.00 | 0.00 | 51 | 1011.6 |
| 20260505231026 | 71 | 203 | 0.0 | 2.0 | 0.00 | 0.00 | 0.00 | 51 | 1011.7 |
| 20260505230526 | 71 | 0 | 0.0 | 2.0 | 0.00 | 0.00 | 0.00 | 51 | 1011.6 |
| 20260505230046 | 71 | 18 | 0.0 | 2.0 | 0.00 | 0.00 | 0.00 | 51 | 1011.6 |
| 20260505225526 | 71 | 0 | 0.0 | 3.0 | 0.00 | 0.00 | 0.00 | 51 | 1011.6 |
| 20260505225028 | 71 | 0 | 1.0 | 3.0 | 0.00 | 0.00 | 0.00 | 52 | 1011.7 |
| 20260505224548 | 71 | 303 | 0.0 | 4.0 | 0.00 | 0.00 | 0.00 | 52 | 1011.8 |
| 20260505224026 | 71 | 282 | 1.0 | 4.0 | 0.00 | 0.00 | 0.00 | 49 | 1011.9 |
| 20260505223525 | 71 | 0 | 0.0 | 4.0 | 0.00 | 0.00 | 0.00 | 50 | 1011.9 |
| 20260505223047 | 71 | 339 | 1.0 | 3.0 | 0.00 | 0.00 | 0.00 | 48 | 1012.0 |
| 20260505222525 | 71 | 99 | 0.0 | 3.0 | 0.00 | 0.00 | 0.00 | 50 | 1012.2 |
| 20260505222025 | 72 | 269 | 0.0 | 5.0 | 0.00 | 0.00 | 0.00 | 49 | 1012.2 |
| 20260505221546 | 72 | 293 | 1.0 | 5.0 | 0.00 | 0.00 | 0.00 | 48 | 1012.3 |
| 20260505221023 | 72 | 13 | 1.0 | 5.0 | 0.00 | 0.00 | 0.00 | 49 | 1012.2 |
| 20260505220525 | 72 | 47 | 1.0 | 5.0 | 0.00 | 0.00 | 0.00 | 49 | 1012.3 |
| 20260505220045 | 72 | 266 | 1.0 | 4.0 | 0.00 | 0.00 | 0.00 | 48 | 1012.4 |
| 20260505215526 | 72 | 18 | 1.0 | 7.0 | 0.00 | 0.00 | 0.00 | 48 | 1012.3 |
| 20260505215027 | 72 | 108 | 1.0 | 7.0 | 0.00 | 0.00 | 0.00 | 49 | 1012.4 |
| 20260505214539 | 73 | 3 | 2.0 | 7.0 | 0.00 | 0.00 | 0.00 | 48 | 1012.4 |
| 20260505214023 | 73 | 291 | 1.0 | 6.0 | 0.00 | 0.00 | 0.00 | 49 | 1012.5 |
| 20260505213529 | 73 | 320 | 1.0 | 5.0 | 0.00 | 0.00 | 0.00 | 48 | 1012.5 |
| 20260505213048 | 73 | 253 | 1.0 | 5.0 | 0.00 | 0.00 | 0.00 | 49 | 1012.5 |
| 20260505212528 | 73 | 290 | 2.0 | 6.0 | 0.00 | 0.00 | 0.00 | 48 | 1012.5 |
| 20260505212026 | 73 | 302 | 1.0 | 6.0 | 0.00 | 0.00 | 0.00 | 48 | 1012.4 |
| 20260505211548 | 73 | 105 | 3.0 | 6.0 | 0.00 | 0.00 | 0.00 | 47 | 1012.4 |
| 20260505211029 | 73 | 304 | 2.0 | 7.0 | 0.00 | 0.00 | 0.00 | 50 | 1012.3 |
| 20260505210526 | 73 | 11 | 1.0 | 11.0 | 0.00 | 0.00 | 0.00 | 48 | 1012.2 |
| 20260505210042 | 73 | 7 | 2.0 | 11.0 | 0.00 | 0.00 | 0.00 | 47 | 1012.2 |
| 20260505205527 | 73 | 33 | 3.0 | 11.0 | 0.00 | 0.00 | 0.00 | 46 | 1012.1 |
| 20260505205025 | 73 | 309 | 1.0 | 8.0 | 0.00 | 0.00 | 0.00 | 49 | 1012.1 |
| 20260505204546 | 73 | 357 | 2.0 | 6.0 | 0.00 | 0.00 | 0.00 | 48 | 1012.3 |
| 20260505204027 | 73 | 96 | 1.0 | 6.0 | 0.00 | 0.00 | 0.00 | 48 | 1012.2 |
| 20260505203526 | 73 | 65 | 2.0 | 6.0 | 0.00 | 0.00 | 0.00 | 48 | 1012.0 |
| 20260505203047 | 73 | 8 | 2.0 | 6.0 | 0.00 | 0.00 | 0.00 | 48 | 1012.3 |
| 20260505202523 | 73 | 92 | 2.0 | 9.0 | 0.00 | 0.00 | 0.00 | 49 | 1012.3 |
| 20260505202023 | 73 | 62 | 3.0 | 9.0 | 0.00 | 0.00 | 0.00 | 48 | 1012.2 |
| 20260505201548 | 73 | 34 | 2.0 | 8.0 | 0.00 | 0.00 | 0.00 | 48 | 1012.3 |
| 20260505201026 | 73 | 309 | 1.0 | 8.0 | 0.00 | 0.00 | 0.00 | 47 | 1012.4 |
| 20260505200523 | 74 | 23 | 1.0 | 8.0 | 0.00 | 0.00 | 0.00 | 48 | 1012.4 |
| 20260505200046 | 74 | 212 | 1.0 | 8.0 | 0.00 | 0.00 | 0.00 | 47 | 1012.4 |
| 20260505195528 | 74 | 271 | 1.0 | 6.0 | 0.00 | 0.00 | 0.00 | 48 | 1012.4 |
| 20260505195025 | 74 | 319 | 2.0 | 6.0 | 0.00 | 0.00 | 0.00 | 49 | 1012.5 |
| 20260505194548 | 74 | 314 | 3.0 | 8.0 | 0.00 | 0.00 | 0.00 | 47 | 1012.6 |
| 20260505194025 | 74 | 297 | 2.0 | 8.0 | 0.00 | 0.00 | 0.00 | 48 | 1012.5 |
| 20260505193529 | 74 | 19 | 2.0 | 10.0 | 0.00 | 0.00 | 0.00 | 47 | 1012.3 |
| 20260505193102 | 74 | 350 | 3.0 | 10.0 | 0.00 | 0.00 | 0.00 | 46 | 1012.4 |
| 20260505192524 | 74 | 136 | 3.0 | 10.0 | 0.00 | 0.00 | 0.00 | 46 | 1012.4 |
| 20260505192023 | 74 | 5 | 3.0 | 9.0 | 0.00 | 0.00 | 0.00 | 46 | 1012.4 |
| 20260505191542 | 74 | 332 | 2.0 | 5.0 | 0.00 | 0.00 | 0.00 | 47 | 1012.4 |
| 20260505191023 | 75 | 219 | 1.0 | 5.0 | 0.00 | 0.00 | 0.00 | 46 | 1012.4 |
| 20260505190522 | 75 | 1 | 2.0 | 10.0 | 0.00 | 0.00 | 0.00 | 50 | 1012.5 |
| 20260505190046 | 75 | 338 | 3.0 | 10.0 | 0.00 | 0.00 | 0.00 | 48 | 1012.5 |
| 20260505185523 | 75 | 8 | 3.0 | 7.0 | 0.00 | 0.00 | 0.00 | 48 | 1012.5 |
| 20260505185029 | 75 | 294 | 2.0 | 9.0 | 0.00 | 0.00 | 0.00 | 49 | 1012.5 |
| 20260505184553 | 75 | 294 | 2.0 | 9.0 | 0.00 | 0.00 | 0.00 | 48 | 1012.5 |
| 20260505184026 | 75 | 236 | 4.0 | 9.0 | 0.00 | 0.00 | 0.00 | 47 | 1012.5 |
| 20260505183524 | 75 | 18 | 3.0 | 7.0 | 0.00 | 0.00 | 0.00 | 47 | 1012.4 |
| 20260505183044 | 76 | 6 | 2.0 | 8.0 | 0.00 | 0.00 | 0.00 | 47 | 1012.6 |
| 20260505182523 | 76 | 33 | 4.0 | 8.0 | 0.00 | 0.00 | 0.00 | 46 | 1012.6 |
| 20260505182023 | 76 | 309 | 2.0 | 6.0 | 0.00 | 0.00 | 0.00 | 48 | 1012.4 |
| 20260505181545 | 76 | 340 | 3.0 | 8.0 | 0.00 | 0.00 | 0.00 | 46 | 1012.3 |
| 20260505181026 | 76 | 349 | 4.0 | 9.0 | 0.00 | 0.00 | 0.00 | 47 | 1012.3 |
| 20260505180524 | 76 | 311 | 4.0 | 9.0 | 0.00 | 0.00 | 0.00 | 46 | 1012.3 |
| 20260505180045 | 76 | 358 | 4.0 | 9.0 | 0.00 | 0.00 | 0.00 | 46 | 1012.4 |
| 20260505175526 | 76 | 250 | 3.0 | 8.0 | 0.00 | 0.00 | 0.00 | 48 | 1012.5 |
| 20260505175026 | 76 | 297 | 3.0 | 7.0 | 0.00 | 0.00 | 0.00 | 47 | 1012.4 |
| 20260505174540 | 76 | 26 | 2.0 | 12.0 | 0.00 | 0.00 | 0.00 | 47 | 1012.5 |
| 20260505174023 | 75 | 315 | 3.0 | 12.0 | 0.00 | 0.00 | 0.00 | 47 | 1012.6 |
| 20260505173527 | 75 | 93 | 3.0 | 11.0 | 0.00 | 0.00 | 0.00 | 47 | 1012.5 |
| 20260505173039 | 75 | 27 | 3.0 | 11.0 | 0.00 | 0.00 | 0.00 | 47 | 1012.7 |
| 20260505172524 | 75 | 279 | 2.0 | 7.0 | 0.00 | 0.00 | 0.00 | 49 | 1012.8 |
| 20260505172024 | 75 | 353 | 4.0 | 7.0 | 0.00 | 0.00 | 0.00 | 47 | 1012.6 |
| 20260505171549 | 75 | 309 | 2.0 | 6.0 | 0.00 | 0.00 | 0.00 | 47 | 1012.6 |
| 20260505171025 | 75 | 351 | 2.0 | 5.0 | 0.00 | 0.00 | 0.00 | 48 | 1012.9 |
| 20260505170524 | 75 | 35 | 2.0 | 10.0 | 0.00 | 0.00 | 0.00 | 47 | 1012.8 |
| 20260505170042 | 75 | 337 | 2.0 | 10.0 | 0.00 | 0.00 | 0.00 | 49 | 1012.8 |
| 20260505165524 | 75 | 19 | 3.0 | 7.0 | 0.00 | 0.00 | 0.00 | 48 | 1012.8 |
| 20260505165024 | 75 | 281 | 3.0 | 6.0 | 0.00 | 0.00 | 0.00 | 49 | 1012.9 |
| 20260505164545 | 74 | 324 | 3.0 | 8.0 | 0.00 | 0.00 | 0.00 | 48 | 1012.9 |
| 20260505164024 | 74 | 44 | 4.0 | 8.0 | 0.00 | 0.00 | 0.00 | 49 | 1013.0 |
| 20260505163524 | 74 | 29 | 2.0 | 7.0 | 0.00 | 0.00 | 0.00 | 50 | 1013.0 |
| 20260505163048 | 73 | 73 | 3.0 | 8.0 | 0.00 | 0.00 | 0.00 | 49 | 1013.0 |
| 20260505162523 | 73 | 301 | 3.0 | 9.0 | 0.00 | 0.00 | 0.00 | 50 | 1013.0 |
| 20260505162027 | 73 | 300 | 3.0 | 9.0 | 0.00 | 0.00 | 0.00 | 50 | 1013.0 |
| 20260505161548 | 73 | 2 | 3.0 | 9.0 | 0.00 | 0.00 | 0.00 | 50 | 1013.2 |
| 20260505161024 | 72 | 285 | 4.0 | 8.0 | 0.00 | 0.00 | 0.00 | 50 | 1013.0 |
| 20260505160526 | 72 | 42 | 4.0 | 8.0 | 0.00 | 0.00 | 0.00 | 50 | 1013.1 |
| 20260505153047 | 70 | 13 | 2.0 | 10.0 | 0.00 | 0.00 | 0.00 | 53 | 1013.5 |
| 20260505152525 | 70 | 349 | 4.0 | 10.0 | 0.00 | 0.00 | 0.00 | 53 | 1013.4 |
| 20260505152033 | 70 | 255 | 4.0 | 9.0 | 0.00 | 0.00 | 0.00 | 54 | 1013.6 |
| 20260505151540 | 70 | 360 | 3.0 | 9.0 | 0.00 | 0.00 | 0.00 | 55 | 1013.6 |
| 20260505151024 | 69 | 33 | 1.0 | 7.0 | 0.00 | 0.00 | 0.00 | 56 | 1013.6 |
| 20260505150524 | 69 | 252 | 2.0 | 7.0 | 0.00 | 0.00 | 0.00 | 55 | 1013.8 |
| 20260505140524 | 68 | 96 | 3.0 | 12.0 | 0.00 | 0.00 | 0.00 | 57 | 1014.0 |
| 20260505125025 | 64 | 304 | 2.0 | 6.0 | 0.00 | 0.00 | 0.00 | 62 | 1013.9 |
| 20260505124535 | 64 | 294 | 1.0 | 6.0 | 0.00 | 0.00 | 0.00 | 62 | 1013.9 |
| 20260505124024 | 64 | 337 | 2.0 | 5.0 | 0.00 | 0.00 | 0.00 | 61 | 1013.8 |
| 20260505123524 | 63 | 0 | 1.0 | 7.0 | 0.00 | 0.00 | 0.00 | 63 | 1014.0 |
| 20260505123053 | 63 | 38 | 1.0 | 10.0 | 0.00 | 0.00 | 0.00 | 64 | 1014.0 |
| 20260505122524 | 63 | 208 | 2.0 | 10.0 | 0.00 | 0.00 | 0.00 | 64 | 1014.0 |
| 20260505122025 | 63 | 0 | 1.0 | 6.0 | 0.00 | 0.00 | 0.00 | 65 | 1014.1 |
| 20260505121539 | 62 | 21 | 0.0 | 6.0 | 0.00 | 0.00 | 0.00 | 65 | 1014.3 |
| 20260505121024 | 62 | 358 | 1.0 | 6.0 | 0.00 | 0.00 | 0.00 | 67 | 1014.2 |
| 20260505120524 | 62 | 30 | 0.0 | 2.0 | 0.00 | 0.00 | 0.00 | 67 | 1014.3 |
| 20260505120054 | 62 | 16 | 0.0 | 4.0 | 0.00 | 0.00 | 0.00 | 66 | 1014.2 |
| 20260505115523 | 62 | 246 | 0.0 | 4.0 | 0.00 | 0.00 | 0.00 | 65 | 1014.3 |
| 20260505115023 | 62 | 48 | 1.0 | 3.0 | 0.00 | 0.00 | 0.00 | 66 | 1014.3 |
| 20260505114549 | 62 | 6 | 1.0 | 5.0 | 0.00 | 0.00 | 0.00 | 66 | 1014.2 |
| 20260505114024 | 62 | 51 | 0.0 | 5.0 | 0.00 | 0.00 | 0.00 | 65 | 1014.2 |
| 20260505113524 | 62 | 51 | 1.0 | 3.0 | 0.00 | 0.00 | 0.00 | 67 | 1014.3 |
| 20260505113045 | 62 | 11 | 0.0 | 2.0 | 0.00 | 0.00 | 0.00 | 67 | 1014.2 |
| 20260505112527 | 62 | 208 | 0.0 | 2.0 | 0.00 | 0.00 | 0.00 | 67 | 1014.2 |
| 20260505112024 | 62 | 0 | 0.0 | 2.0 | 0.00 | 0.00 | 0.00 | 65 | 1014.2 |
| 20260505111541 | 62 | 0 | 0.0 | 4.0 | 0.00 | 0.00 | 0.00 | 66 | 1014.1 |
| 20260505111029 | 62 | 53 | 1.0 | 4.0 | 0.00 | 0.00 | 0.00 | 65 | 1014.1 |
| 20260505110524 | 62 | 0 | 1.0 | 3.0 | 0.00 | 0.00 | 0.00 | 66 | 1014.1 |
| 20260505102027 | 62 | 295 | 1.0 | 5.0 | 0.00 | 0.00 | 0.00 | 64 | 1013.6 |
| 20260505101543 | 62 | 324 | 1.0 | 3.0 | 0.00 | 0.00 | 0.00 | 63 | 1013.5 |
| 20260505101029 | 63 | 1 | 0.0 | 5.0 | 0.00 | 0.00 | 0.00 | 63 | 1013.4 |
| 20260505100526 | 63 | 3 | 1.0 | 5.0 | 0.00 | 0.00 | 0.00 | 63 | 1013.3 |
| 20260505100041 | 62 | 316 | 1.0 | 4.0 | 0.00 | 0.00 | 0.00 | 64 | 1013.2 |
| 20260505095527 | 62 | 278 | 0.0 | 3.0 | 0.00 | 0.00 | 0.00 | 63 | 1013.1 |
| 20260505095029 | 62 | 0 | 0.0 | 3.0 | 0.00 | 0.00 | 0.00 | 64 | 1013.0 |
| 20260505094539 | 62 | 295 | 1.0 | 5.0 | 0.00 | 0.00 | 0.00 | 64 | 1012.9 |
| 20260505094024 | 62 | 15 | 1.0 | 5.0 | 0.00 | 0.00 | 0.00 | 64 | 1012.9 |
| 20260505093527 | 62 | 63 | 0.0 | 3.0 | 0.00 | 0.00 | 0.00 | 65 | 1012.8 |
| 20260505093040 | 62 | 0 | 0.0 | 5.0 | 0.00 | 0.00 | 0.00 | 64 | 1012.8 |
| 20260505092527 | 62 | 44 | 0.0 | 5.0 | 0.00 | 0.00 | 0.00 | 64 | 1012.8 |
| 20260505092026 | 62 | 0 | 1.0 | 4.0 | 0.00 | 0.00 | 0.00 | 63 | 1012.8 |
| 20260505091601 | 62 | 24 | 0.0 | 3.0 | 0.00 | 0.00 | 0.00 | 64 | 1012.5 |